User: anonymous   Login
Location: Bow
(51.5261°N, 0.0167°W)
Time: 23:11:48
(UTC+00:00)
Language:

SPOT 5 - Orbit

View from above orbital plane
View from above orbital plane
View from above satellite
View from above satellite

Ground track
Ground track

The orbit data is extracted from the following two-line orbital elements,

1 27421U 02021A   21210.79249763  .00000049  00000-0  21875-4 0  9994
2 27421  98.2290 280.6298 0135676  33.1426 327.8174 14.52110761  3878
Epoch (UTC): 29 July 2021 19:01:11
Eccentricity: 0.0135676
inclination: 98.2290°
perigee height: 622 km
apogee height: 815 km
right ascension of ascending node: 280.6298°
argument of perigee: 33.1426°
revolutions per day: 14.52110761
mean anomaly at epoch: 327.8174°
orbit number at epoch: 387

The dashed part of the orbit path shows where the satellite is in the earth's shadow,  

DLR